Regional Weather Roundup
Issued by NWS

Home | Current Version | Previous Version | Graphics & Text | Print | Product List | Glossary On
Versions: 1 2 3 4 5 6 7 8 9 10 11 12 13 14 15 16 17 18 19 20 21 22 23 24 25 26 27 28 29 30 31 32 33 34 35 36 37 38 39 40 41 42 43 44 45 46 47 48 49 50
841
ASUS44 KMEG 291110
RWRTN
TENNESSEE HOURLY STATE WEATHER ROUNDUP
NATIONAL WEATHER SERVICE MEMPHIS TN
600 AM CDT SAT APR 29 2017

TNZ002-004-019-021-049-052-054-088>092-291200-
WEST TENNESSEE

CITY           SKY/WX    TMP DP  RH WIND       PRES   REMARKS
MEMPHIS INTL   CLOUDY    75  69  81 S12       29.86R
NWS MEMPHIS      N/A     75 N/A N/A MISG        N/A
JACKSON        CLOUDY    75  69  81 S8        29.89R
DYERSBURG      CLOUDY    75  69  81 VRB7      29.86R
SOMERVILLE     CLOUDY    75  68  78 VRB7G14   29.87R
UNION CITY     CLOUDY    75  70  83 S15       29.85S
BOLIVAR        CLOUDY    75  68  78 SE12      29.89R
HUNTINGDON     CLOUDY    73  70  88 S9        29.89S
LEXINGTON      CLOUDY    75  68  78 S8G17     29.92R
SAVANNAH       CLOUDY    73  68  83 S8G14     29.93R
$$

TNZ008-025-027-028-033-062-065-066-291200-
NORTH MIDDLE TENNESSEE

CITY           SKY/WX    TMP DP  RH WIND       PRES   REMARKS
NASHVILLE      CLOUDY    73  68  84 SE9       29.98R
PORTLAND       MOCLDY    73  68  83 S8        29.97S
CLARKSVILLE    MOCLDY    74  66  76 S8        29.94R
SMYRNA         MOCLDY    73  68  84 SE7       30.00R
COOKEVILLE     MOCLDY    72  66  83 S8        30.03S
GALLATIN       CLOUDY    73  68  83 S7        30.01S
CROSSVILLE     CLEAR     67  64  90 S5        30.10S
$$

TNZ061-075-076-078-094-096-097-291200-
SOUTH MIDDLE TENNESSEE

CITY           SKY/WX    TMP DP  RH WIND       PRES   REMARKS
FAYETTEVILLE     N/A     68  66  94 SE7       30.01S
TULLAHOMA      CLEAR     70  64  83 SE9       30.04S
WINCHESTER     CLEAR     70  66  88 SE9       30.05R
MCMINNVILLE    CLEAR     72  66  83 CALM      30.03S
COLUMBIA       PTCLDY   N/A N/A N/A S7        29.96R
SHELBYVILLE    CLEAR     73  70  88 SE7       30.01S
$$

TNZ017-018-042-046-047-291200-
NORTHEAST TENNESSEE

CITY           SKY/WX    TMP DP  RH WIND       PRES   REMARKS
TRI CITIES     CLOUDY    59  58  96 CALM      30.14R
ELIZABETHTON     N/A     63  59  88 CALM      30.15R
$$

TNZ012-013-036-069-073-074-291200-
CENTRAL EAST TENNESSEE

CITY           SKY/WX    TMP DP  RH WIND       PRES   REMARKS
KNOXVILLE      CLOUDY    65  62  90 N5        30.08R
OAK RIDGE      PTCLDY    69  64  84 CALM      30.10R
DOWNTOWN KNOXV FOG       61  61 100 CALM      30.10R VSB 1
GATLINBURG     CLEAR     59  57  94 CALM      30.09R
MORRISTOWN     CLEAR     63  61  94 N6        30.10R FOG
JACKSBORO      MOCLDY    73  64  73 VRB5      30.11S
$$

TNZ083-085-099-291200-
SOUTHEAST TENNESSEE

CITY           SKY/WX    TMP DP  RH WIND       PRES   REMARKS
CHATTANOOGA    PTCLDY    66  64  93 CALM      30.09R FOG
$$

SKY/WX REPORTED AS FAIR MEANS FEW OR NO CLOUDS BELOW
12 THOUSAND FEET.





USA.gov is the U.S. government's official web portal to all federal, state and local government web resources and services.